Location: Kerb�bon
(47.7970°N, 3.3487°W)
Time: 12:31:52
(UTC+00:00)

Gbstr 26 Del rocket - Pass Details

Date: 12 May 2021
Orbit: 493 x 1263 km, 51.8° (Epoch: 18 June)

Event Time Altitude Azimuth Distance (km) Brightness Sun altitude
Rises 22:02:50 0° 288° (WNW) 4,153 8.1 -18.0°
Reaches altitude 10° 22:05:50 10° 291° (WNW) 3,125 7.4 -18.2°
Maximum altitude 22:13:30 76° 17° (NNE) 1,095 4.3 -18.9°
Enters shadow 22:18:37 17° 102° (ESE) 2,197 5.5 -19.3°
